This demonstration page uses our WeatherBlox Daily Observations layout. Learn more.

Left ArrowRight Arrow

Hourly Observations for September 7, 2019

Temp ( °F °C ) Dew Point ( °F °C ) Humidity (%) Winds ( mph kmh ) Pressure ( in mb ) Visibility ( mi km ) Precip ( " mm )
12:54 am 00:54 Partly Cloudy with Light Rain 67 19.4 60 15.6 79 79 N 6 9 30.11 1020 10 16 0.00 0.00
1:54 am 01:54 Clear 65 18.3 60 15.6 84 84 NNE 3 6 30.10 1019 10 16 0.00 0.00
2:54 am 02:54 Clear with Light Rain 64 17.8 60 15.6 87 87 Calm 30.09 1019 10 16 0.00 0.00
3:54 am 03:54 Clear 63 17.2 58 14.4 84 84 N 5 7 30.09 1019 10 16 0.00 0.00
4:54 am 04:54 Clear with Light Rain 64 17.8 58 14.4 81 81 E 3 6 30.07 1018 10 16 0.00 0.00
5:54 am 05:54 Clear 64 17.8 58 14.4 81 81 ESE 3 6 30.07 1018 10 16 0.00 0.00
6:54 am 06:54 Clear 61 16.1 57 13.9 87 87 N 5 7 30.09 1019 10 16 0.00 0.00
7:54 am 07:54 Sunny 65 18.3 59 15 81 81 SSE 7 11 30.07 1018 10 16 0.00 0.00
8:54 am 08:54 Sunny 68 20 59 15 73 73 SSE 9 15 30.05 1018 10 16 0.00 0.00
9:54 am 09:54 Mostly Sunny 71 21.7 59 15 66 66 S 12 19 30.04 1017 10 16 0.00 0.00
10:54 am 10:54 Mostly Sunny 73 22.8 60 15.6 64 64 SSE 15 24 30.02 1017 10 16 0.00 0.00
11:54 am 11:54 Partly Cloudy 79 26.1 61 16.1 54 54 SSE 12 19 30.01 1016 10 16 0.00 0.00
12:54 pm 12:54 Mostly Sunny 77 25 60 15.6 56 56 undefined N/A 29.98 1015 10 16 0.00 0.00
1:54 pm 13:54 Cloudy with Light Rain 72 22.2 63 17.2 73 73 SE 8 13 29.98 1015 8 13 0.07 1.78
2:54 pm 14:54 Sunny 73 22.8 65 18.3 76 76 E 8 13 29.93 1014 10 16 0.00 0.00
3:54 pm 15:54 Cloudy with Rain 72 22.2 63 17.2 73 73 ENE 9 15 29.93 1014 5 8 0.00 0.00
4:54 pm 16:54 Mostly Sunny 72 22.2 64 17.8 76 76 ESE 8 13 29.91 1013 10 16 0.05 1.27
5:54 pm 17:54 Cloudy 71 21.7 65 18.3 81 81 NE 6 9 29.91 1013 10 16 0.00 0.00
6:54 pm 18:54 Cloudy 71 21.7 64 17.8 79 79 NE 5 7 29.90 1013 10 16 0.00 0.00
7:54 pm 19:54 Cloudy 69 20.6 64 17.8 84 84 NNE 6 9 29.90 1013 10 16 0.00 0.00
8:27 pm 20:27 Cloudy with Nearby Thunderstorms 68 20 64 17.8 87 87 NNE 9 15 29.88 1012 10 16 0.00 0.00
8:46 pm 20:46 Cloudy 68 20 63 17.2 84 84 NNE 10 17 29.87 1011 10 16 0.00 0.00
8:54 pm 20:54 Cloudy 68 20 63 17.2 84 84 NE 8 13 29.87 1012 10 16 0.00 0.00
9:18 pm 21:18 Mostly Cloudy with Nearby Thunderstorms 68 20 63 17.2 84 84 ENE 8 13 29.88 1012 10 16 0.00 0.00
9:33 pm 21:33 Cloudy 69 20.6 63 17.2 81 81 NE 3 6 29.89 1012 10 16 0.00 0.00
9:54 pm 21:54 Mostly Cloudy with Light Rain 68 20 64 17.8 87 87 ENE 10 17 29.90 1012 10 16 0.00 0.00
10:34 pm 22:34 Mostly Cloudy 68 20 63 17.2 84 84 NE 9 15 29.88 1012 10 16 0.00 0.00
10:54 pm 22:54 Cloudy 68 20 63 17.2 84 84 ENE 9 15 29.87 1012 10 16 0.00 0.00
11:18 pm 23:18 Mostly Cloudy 67 19.4 63 17.2 87 87 NNE 7 11 29.90 1013 10 16 0.00 0.00
11:29 pm 23:29 Mostly Cloudy 67 19.4 64 17.8 91 91 NE 7 11 29.89 1012 10 16 0.00 0.00
11:41 pm 23:41 Cloudy 67 19.4 64 17.8 91 91 ENE 7 11 29.89 1012 10 16 0.00 0.00
11:54 pm 23:54 Mostly Cloudy 67 19.4 63 17.2 87 87 E 7 11 29.89 1012 10 16 0.00 0.00

Powered by AerisWeather